Weather in Susanino

Russia / Khabarovsk Krai     52°47′38″N   140°04′25″E
temp.,
°C
wind,
m/s
gust,
m/s
humid.,
%
clouds,
%
prec.,
mm/h
press.,
hPa
HPBL,
m
27 february, sat
sat2701:00−23ssw119454 0.0 102820
04:00−24se019443 0.0 102920
07:00−23ese11900 0.0 102920
10:00−17ese11790 0.0 1028108
13:00−12ene02730 0.0 1028341
16:00−10s12798 0.0 1025358
19:00−16se3390100 0.0 102429
22:00−17ese3393100 0.0 102163
28 february, sun
sun2801:00−14se3589100 0.0 1017162
04:00−13ese1396100 1.3 1013109
07:00−13wsw1196100 0.8 101224
10:00−13nw339299 1.4 1011274
13:00−11nw4785100 0.1 1011662
16:00−13nw598499 0.1 1012539
19:00−18wnw4890100 0.1 1014250
22:00−22wnw369481 0.1 1015122
1 march, mon
mon101:00−22w239693 0.0 101646
04:00−21w369696 0.1 1018188
07:00−19wnw51396100 0.1 1019502
10:00−19wnw61081100 0.2 1021790
13:00−17nw7107165 0.0 10211115
16:00−17nnw577374 0.0 1022861
19:00−21ssw118888 0.0 102320
22:00−21w1110094 0.1 102420
2 march, tue
tue201:00−24wnw2291100 0.0 102420
04:00−26sse1283100 0.0 102519
07:00−25sse1281100 0.0 102620
10:00−21sw587093 0.0 1026737
13:00−20wsw46620 0.0 10261217
16:00−19wnw486435 0.0 10261573
19:00−23wsw3380100 0.0 102625
22:00−27sse128266 0.0 102620
3 march, wed
wed301:00−29s11860 0.0 102519
04:00−29se12820 0.0 102519
07:00−30sse11790 0.0 102520
10:00−23ese11730 0.0 1024140
13:00−19wnw12650 0.0 1021381
16:00−16sse357524 0.0 1018547
19:00−20e2290100 0.0 101721
22:00−21ene1193100 0.0 101620